CEB597 RPVM-RPMD

Flight info

Callsign CEB597
Flight time 0h 41m
Altitude 29000
Route BAMPA2A BAMPA W14 BN W9 RIMAR RIMAR2R
Aircraft A320/M-SDE3FGHIRWY/LB1

Departure

Time 2026-05-01 10:25
Airport Mactan Cebu International Airport (RPVM)

Arrival

Time 2026-05-01 11:07
Airport Francisco Bangoy International Airport (RPMD)
Time Latitude Longitude Altitude Speed Heading
2026-05-01 10:01 10.31459 123.97872 37 ft 0 kts 315°
2026-05-01 10:16 10.31458 123.97873 37 ft 2 kts 315°
2026-05-01 10:16 10.31424 123.97907 37 ft 4 kts 310°
2026-05-01 10:17 10.31413 123.97929 35 ft 4 kts 269°
2026-05-01 10:17 10.31423 123.97958 37 ft 0 kts 225°
2026-05-01 10:19 10.31421 123.97955 37 ft 1 kts 225°
2026-05-01 10:20 10.31366 123.97903 36 ft 7 kts 213°
2026-05-01 10:20 10.31324 123.97904 37 ft 7 kts 156°
2026-05-01 10:20 10.31266 123.97955 35 ft 11 kts 134°
2026-05-01 10:20 10.31208 123.97984 37 ft 9 kts 197°
2026-05-01 10:21 10.31162 123.97943 36 ft 12 kts 225°
2026-05-01 10:21 10.30994 123.97776 35 ft 17 kts 225°
2026-05-01 10:21 10.30908 123.97690 37 ft 16 kts 225°
2026-05-01 10:22 10.30713 123.97496 37 ft 20 kts 224°
2026-05-01 10:22 10.30534 123.97316 35 ft 19 kts 225°
2026-05-01 10:23 10.30446 123.97225 35 ft 17 kts 226°
2026-05-01 10:23 10.30289 123.97226 35 ft 15 kts 133°
2026-05-01 10:23 10.30211 123.97308 37 ft 15 kts 135°
2026-05-01 10:24 10.30260 123.97447 37 ft 25 kts 41°
2026-05-01 10:24 10.31161 123.98346 37 ft 146 kts 45°
2026-05-01 10:25 10.32706 123.99927 1122 ft 153 kts 46°
2026-05-01 10:25 10.34281 124.01538 2087 ft 177 kts 49°
2026-05-01 10:26 10.35004 124.02636 2306 ft 198 kts 64°
2026-05-01 10:26 10.35417 124.04059 2550 ft 224 kts 83°
2026-05-01 10:26 10.34618 124.07365 3438 ft 264 kts 124°
2026-05-01 10:27 10.31544 124.09416 5027 ft 276 kts 159°
2026-05-01 10:27 10.27868 124.10640 6459 ft 283 kts 160°
2026-05-01 10:28 10.25996 124.11261 7238 ft 284 kts 160°
2026-05-01 10:28 10.22195 124.12529 8800 ft 290 kts 159°
2026-05-01 10:28 10.20271 124.13172 9584 ft 292 kts 159°
2026-05-01 10:29 10.16629 124.15082 10495 ft 312 kts 129°
2026-05-01 10:29 10.15264 124.16887 10650 ft 334 kts 126°
2026-05-01 10:30 10.12030 124.20519 11554 ft 353 kts 133°
2026-05-01 10:30 10.08544 124.24106 12748 ft 361 kts 132°
2026-05-01 10:31 10.05081 124.27862 13931 ft 367 kts 130°
2026-05-01 10:31 10.01647 124.31749 14979 ft 372 kts 130°
2026-05-01 10:32 9.98135 124.35672 16008 ft 378 kts 130°
2026-05-01 10:32 9.96353 124.37644 16516 ft 381 kts 130°
2026-05-01 10:32 9.92745 124.41624 17487 ft 386 kts 131°
2026-05-01 10:33 9.89079 124.45664 18416 ft 391 kts 131°
2026-05-01 10:33 9.85406 124.49721 19205 ft 396 kts 131°
2026-05-01 10:34 9.83539 124.51785 19561 ft 400 kts 131°
2026-05-01 10:34 9.81652 124.53873 19968 ft 402 kts 131°
2026-05-01 10:34 9.79752 124.55977 20365 ft 405 kts 131°
2026-05-01 10:35 9.75920 124.60212 21148 ft 409 kts 131°
2026-05-01 10:35 9.73991 124.62341 21540 ft 412 kts 131°
2026-05-01 10:35 9.72046 124.64487 21908 ft 414 kts 131°
2026-05-01 10:35 9.70094 124.66645 22273 ft 416 kts 131°
2026-05-01 10:36 9.66160 124.70997 22995 ft 421 kts 131°
2026-05-01 10:36 9.64176 124.73190 23352 ft 423 kts 131°
2026-05-01 10:36 9.62175 124.75399 23682 ft 425 kts 131°
2026-05-01 10:37 9.60171 124.77611 23968 ft 427 kts 131°
2026-05-01 10:37 9.56135 124.82066 24560 ft 431 kts 131°
2026-05-01 10:37 9.54108 124.84305 24862 ft 432 kts 131°
2026-05-01 10:38 9.52076 124.86554 25129 ft 434 kts 131°
2026-05-01 10:38 9.50058 124.88785 25401 ft 436 kts 131°
2026-05-01 10:38 9.47974 124.91080 25676 ft 438 kts 131°
2026-05-01 10:38 9.45933 124.93322 25965 ft 439 kts 131°
2026-05-01 10:39 9.43858 124.95598 26250 ft 441 kts 131°
2026-05-01 10:39 9.41772 124.97877 26537 ft 442 kts 131°
2026-05-01 10:39 9.39668 125.00163 26798 ft 445 kts 132°
2026-05-01 10:39 9.37546 125.02457 27039 ft 447 kts 132°
2026-05-01 10:40 9.35415 125.04762 27286 ft 449 kts 132°
2026-05-01 10:40 9.33278 125.07082 27551 ft 451 kts 132°
2026-05-01 10:40 9.31140 125.09408 27809 ft 452 kts 132°
2026-05-01 10:40 9.28988 125.11750 28058 ft 454 kts 132°
2026-05-01 10:41 9.26835 125.14090 28284 ft 456 kts 132°
2026-05-01 10:41 9.24663 125.16447 28529 ft 458 kts 132°
2026-05-01 10:41 9.20311 125.21172 28877 ft 457 kts 132°
2026-05-01 10:42 9.18151 125.23517 28899 ft 453 kts 132°
2026-05-01 10:42 9.13861 125.28171 28898 ft 452 kts 132°
2026-05-01 10:43 9.09567 125.32816 28898 ft 452 kts 132°
2026-05-01 10:43 9.05278 125.37469 28906 ft 452 kts 132°
2026-05-01 10:44 9.01021 125.42088 28907 ft 452 kts 132°
2026-05-01 10:44 8.96371 125.46344 28911 ft 453 kts 147°
2026-05-01 10:45 8.90538 125.48757 28911 ft 456 kts 167°
2026-05-01 10:45 8.84217 125.49493 28903 ft 457 kts 173°
2026-05-01 10:46 8.77884 125.50137 28901 ft 457 kts 172°
2026-05-01 10:46 8.71549 125.50785 28896 ft 457 kts 173°
2026-05-01 10:47 8.65212 125.51426 28894 ft 457 kts 173°
2026-05-01 10:47 8.58919 125.52067 28899 ft 457 kts 172°
2026-05-01 10:48 8.52581 125.52713 28900 ft 457 kts 172°
2026-05-01 10:48 8.46246 125.53311 28898 ft 457 kts 173°
2026-05-01 10:49 8.39909 125.53852 28899 ft 457 kts 173°
2026-05-01 10:49 8.33553 125.54402 28921 ft 462 kts 173°
2026-05-01 10:49 8.30336 125.54688 28715 ft 465 kts 173°
2026-05-01 10:50 8.27092 125.54980 27341 ft 474 kts 173°
2026-05-01 10:50 8.23783 125.55282 26390 ft 476 kts 173°
2026-05-01 10:50 8.20500 125.55580 25682 ft 472 kts 173°
2026-05-01 10:50 8.17289 125.55867 24993 ft 467 kts 173°
2026-05-01 10:51 8.14067 125.56156 24314 ft 463 kts 173°
2026-05-01 10:51 8.10869 125.56442 23673 ft 459 kts 173°
2026-05-01 10:51 8.07690 125.56728 22961 ft 456 kts 173°
2026-05-01 10:51 8.04548 125.57009 22267 ft 451 kts 173°
2026-05-01 10:52 8.01469 125.57283 21460 ft 436 kts 173°
2026-05-01 10:52 7.98516 125.57486 20968 ft 416 kts 178°
2026-05-01 10:52 7.95688 125.57250 20449 ft 401 kts 188°
2026-05-01 10:52 7.93019 125.56573 19990 ft 394 kts 194°
2026-05-01 10:53 7.90390 125.55795 19513 ft 393 kts 194°
2026-05-01 10:53 7.87773 125.55029 19056 ft 391 kts 194°
2026-05-01 10:53 7.85169 125.54271 18591 ft 389 kts 194°
2026-05-01 10:53 7.82563 125.53512 18097 ft 389 kts 194°
2026-05-01 10:54 7.79967 125.52753 17582 ft 387 kts 194°
2026-05-01 10:54 7.77386 125.51993 17086 ft 385 kts 194°
2026-05-01 10:54 7.74855 125.51246 16603 ft 384 kts 194°
2026-05-01 10:54 7.72293 125.50490 16092 ft 384 kts 194°
2026-05-01 10:55 7.69725 125.49732 15578 ft 384 kts 194°
2026-05-01 10:55 7.67160 125.48976 15047 ft 384 kts 194°
2026-05-01 10:55 7.64590 125.48222 14514 ft 384 kts 194°
2026-05-01 10:55 7.62023 125.47473 13984 ft 384 kts 194°
2026-05-01 10:56 7.59454 125.46727 13414 ft 384 kts 194°
2026-05-01 10:56 7.56895 125.45981 12862 ft 383 kts 194°
2026-05-01 10:56 7.55205 125.45486 12495 ft 380 kts 194°
2026-05-01 10:56 7.52673 125.44745 11952 ft 377 kts 194°
2026-05-01 10:57 7.50163 125.44005 11387 ft 375 kts 194°
2026-05-01 10:57 7.46821 125.43020 10659 ft 373 kts 194°
2026-05-01 10:57 7.45189 125.42542 10536 ft 365 kts 194°
2026-05-01 10:57 7.42803 125.41842 10424 ft 350 kts 194°
2026-05-01 10:58 7.40505 125.41168 10312 ft 337 kts 194°
2026-05-01 10:58 7.38288 125.40518 10182 ft 326 kts 194°
2026-05-01 10:58 7.36144 125.39890 10062 ft 314 kts 194°
2026-05-01 10:58 7.34036 125.39565 9791 ft 301 kts 178°
2026-05-01 10:59 7.31973 125.39786 9541 ft 298 kts 165°
2026-05-01 10:59 7.29946 125.40228 9157 ft 297 kts 166°
2026-05-01 10:59 7.27926 125.40663 8759 ft 296 kts 166°
2026-05-01 10:59 7.25924 125.41089 8372 ft 293 kts 166°
2026-05-01 11:00 7.23924 125.41509 7975 ft 294 kts 167°
2026-05-01 11:00 7.21927 125.41932 7590 ft 293 kts 167°
2026-05-01 11:00 7.19932 125.42354 7195 ft 292 kts 166°
2026-05-01 11:00 7.17947 125.42775 6797 ft 291 kts 167°
2026-05-01 11:01 7.15964 125.43200 6408 ft 292 kts 167°
2026-05-01 11:01 7.13981 125.43619 5996 ft 290 kts 167°
2026-05-01 11:01 7.12031 125.44026 5603 ft 290 kts 167°
2026-05-01 11:01 7.10060 125.44437 5207 ft 288 kts 167°
2026-05-01 11:02 7.08129 125.44924 4827 ft 285 kts 156°
2026-05-01 11:02 7.06519 125.46034 4427 ft 280 kts 130°
2026-05-01 11:02 7.05474 125.47654 4027 ft 274 kts 117°
2026-05-01 11:02 7.04576 125.49335 3647 ft 272 kts 117°
2026-05-01 11:03 7.03690 125.50988 3278 ft 262 kts 116°
2026-05-01 11:03 7.03215 125.52686 2907 ft 246 kts 86°
2026-05-01 11:03 7.03706 125.54257 2558 ft 232 kts 53°
2026-05-01 11:03 7.04694 125.55414 2206 ft 212 kts 49°
2026-05-01 11:04 7.05642 125.56528 1922 ft 202 kts 49°
2026-05-01 11:04 7.06531 125.57569 1674 ft 193 kts 49°
2026-05-01 11:04 7.07371 125.58551 1433 ft 178 kts 49°
2026-05-01 11:04 7.08128 125.59433 1211 ft 159 kts 49°
2026-05-01 11:05 7.08826 125.60244 993 ft 148 kts 49°
2026-05-01 11:05 7.09488 125.61013 808 ft 143 kts 49°
2026-05-01 11:05 7.10134 125.61768 632 ft 142 kts 49°
2026-05-01 11:05 7.10776 125.62525 409 ft 142 kts 48°
2026-05-01 11:06 7.11432 125.63274 218 ft 142 kts 47°
2026-05-01 11:06 7.12069 125.64012 105 ft 132 kts 47°
2026-05-01 11:06 7.12571 125.64590 100 ft 85 kts 48°
2026-05-01 11:07 7.12900 125.64898 102 ft 13 kts 332°
2026-05-01 11:07 7.12972 125.64840 100 ft 13 kts 317°
2026-05-01 11:07 7.13013 125.64779 101 ft 9 kts 270°
2026-05-01 11:07 7.12989 125.64736 101 ft 6 kts 230°
2026-05-01 11:08 7.12968 125.64712 100 ft 3 kts 230°
2026-05-01 11:08 7.12953 125.64694 100 ft 8 kts 229°
2026-05-01 11:08 7.12968 125.64617 101 ft 6 kts 319°
2026-05-01 11:09 7.12986 125.64601 101 ft 0 kts 320°